CW8468 Weather Reports


time (UTC)temp
C
wind
direction
speed
KPH
gust
KPH
rain 1hr
cm
rain 24hr
cm
rain mn
cm
humidity
%
barometer
mb
20260510021003 25 140 1.6 6.4 0.00 0.00 0.00 69 1009.0
20260510020024 25 66 1.6 6.4 0.00 0.00 0.00 69 1008.7
20260510015501 26 117 1.6 4.8 0.00 0.00 0.00 68 1008.5
20260510015002 26 85 1.6 3.2 0.00 0.00 0.00 67 1008.2
20260510014517 26 69 1.6 3.2 0.00 0.00 0.00 67 1008.1
20260510014005 26 21 0.0 3.2 0.00 0.00 0.00 65 1008.1
20260510013025 26 19 1.6 6.4 0.00 0.00 0.00 64 1007.9
20260510012501 26 58 3.2 8.0 0.00 0.00 0.00 60 1008.1
20260510012003 26 37 1.6 4.8 0.00 0.00 0.00 56 1008.2
20260510011517 27 69 0.0 3.2 0.00 0.00 0.00 55 1008.1
20260510011003 27 83 1.6 3.2 0.00 0.00 0.00 55 1008.1
20260510010502 27 148 1.6 4.8 0.00 0.00 0.00 54 1008.0
20260510010028 27 210 3.2 11.3 0.00 0.00 0.00 53 1007.8
20260510004517 27 170 3.2 9.7 0.00 0.00 0.00 54 1007.8
20260510004005 27 166 3.2 9.7 0.00 0.00 0.00 54 1007.4
20260510003025 27 188 4.8 11.3 0.00 0.00 0.00 55 1007.7
20260510002502 27 164 6.4 17.7 0.00 0.00 0.00 57 1007.6
20260510002002 27 199 6.4 17.7 0.00 0.00 0.00 55 1007.6
20260510001517 28 210 6.4 17.7 0.00 0.00 0.00 57 1007.6
20260510001002 29 168 4.8 19.3 0.00 0.00 0.00 59 1007.6
20260510000501 29 173 3.2 9.7 0.00 0.00 0.00 62 1007.4
20260510000028 29 143 3.2 11.3 0.00 0.00 0.00 61 1007.5
20260509235501 29 216 3.2 11.3 0.00 0.00 0.00 62 1007.4
20260509235002 29 119 3.2 9.7 0.00 0.00 0.00 64 1007.1
20260509234515 29 146 4.8 9.7 0.00 0.00 0.00 65 1007.1
20260509234001 29 171 4.8 9.7 0.00 0.00 0.00 65 1007.2
20260509233501 29 155 4.8 12.9 0.00 0.00 0.00 63 1007.1
20260509233024 30 154 4.8 12.9 0.00 0.00 0.00 63 1007.1
20260509232501 30 154 3.2 9.7 0.00 0.00 0.00 62 1007.1
20260509232004 31 138 1.6 6.4 0.00 0.00 0.00 62 1007.0
20260509231516 31 2 1.6 4.8 0.00 0.00 0.00 60 1007.0
20260509231002 31 48 1.6 4.8 0.00 0.00 0.00 60 1007.0
20260509230501 31 12 1.6 6.4 0.00 0.00 0.00 60 1007.1
20260509230027 31 21 1.6 6.4 0.00 0.00 0.00 60 1006.9
20260509225502 31 51 1.6 3.2 0.00 0.00 0.00 59 1006.8
20260509225004 31 348 1.6 6.4 0.00 0.00 0.00 59 1006.7
20260509224517 32 334 3.2 6.4 0.00 0.00 0.00 58 1006.7
20260509224002 32 348 3.2 6.4 0.00 0.00 0.00 58 1006.7
20260509223501 32 3 1.6 6.4 0.00 0.00 0.00 57 1006.8
20260509223023 32 299 1.6 6.4 0.00 0.00 0.00 57 1006.8
20260509222004 32 293 3.2 8.0 0.00 0.00 0.00 56 1006.7
20260509221516 32 334 3.2 8.0 0.00 0.00 0.00 57 1006.6
20260509221004 32 297 3.2 8.0 0.00 0.00 0.00 55 1006.7
20260509220503 32 314 1.6 4.8 0.00 0.00 0.00 57 1006.7
20260509220027 32 11 1.6 6.4 0.00 0.00 0.00 58 1006.6
20260509215502 32 26 1.6 6.4 0.00 0.00 0.00 60 1006.7
20260509215002 32 195 3.2 6.4 0.00 0.00 0.00 57 1006.6
20260509214003 32 35 1.6 4.8 0.00 0.00 0.00 55 1006.6
20260509213027 31 33 1.6 4.8 0.00 0.00 0.00 57 1006.8
20260509212502 32 353 3.2 6.4 0.00 0.00 0.00 55 1006.8
20260509211517 32 339 3.2 6.4 0.00 0.00 0.00 57 1006.8
20260509210024 32 23 3.2 6.4 0.00 0.00 0.00 59 1007.0
20260509205501 31 2 3.2 6.4 0.00 0.00 0.00 58 1007.1
20260509205002 32 264 3.2 9.7 0.00 0.00 0.00 58 1007.2
20260509204515 32 358 3.2 9.7 0.00 0.00 0.00 59 1007.2
20260509204002 32 348 4.8 9.7 0.00 0.00 0.00 60 1007.4
20260509203502 32 81 3.2 9.7 0.00 0.00 0.00 62 1007.4
20260509203029 31 23 3.2 4.8 0.00 0.00 0.00 61 1007.5
20260509202501 31 179 1.6 4.8 0.00 0.00 0.00 59 1007.5
20260509202001 31 237 1.6 4.8 0.00 0.00 0.00 61 1007.5
20260509201515 31 247 1.6 8.0 0.00 0.00 0.00 61 1007.6
20260509201002 31 222 3.2 8.0 0.00 0.00 0.00 60 1007.7
20260509200500 31 247 1.6 6.4 0.00 0.00 0.00 61 1007.7
20260509195500 31 267 3.2 6.4 0.00 0.00 0.00 60 1007.9
20260509195003 30 2 3.2 8.0 0.00 0.00 0.00 64 1007.9
20260509194515 31 287 3.2 8.0 0.00 0.00 0.00 61 1007.9
20260509194002 31 293 3.2 9.7 0.00 0.00 0.00 62 1008.0
20260509193501 30 280 1.6 9.7 0.00 0.00 0.00 63 1008.0
20260509193026 30 273 3.2 8.0 0.00 0.00 0.00 62 1008.0
20260509192501 31 142 3.2 8.0 0.00 0.00 0.00 59 1008.1
20260509192001 31 11 3.2 6.4 0.00 0.00 0.00 62 1008.1
20260509191515 30 353 1.6 6.4 0.00 0.00 0.00 63 1008.2
20260509191001 31 358 1.6 6.4 0.00 0.00 0.00 66 1008.2
20260509190026 31 227 3.2 8.0 0.00 0.00 0.00 64 1008.2
20260509185459 30 300 3.2 6.4 0.00 0.00 0.00 66 1008.2
20260509185000 30 243 3.2 8.0 0.00 0.00 0.00 65 1008.3
20260509184514 30 191 3.2 8.0 0.00 0.00 0.00 64 1008.4
20260509183500 29 164 3.2 8.0 0.00 0.00 0.00 67 1008.6
20260509183023 29 146 3.2 9.7 0.00 0.00 0.00 66 1008.7
20260509182459 28 171 3.2 9.7 0.00 0.00 0.00 67 1008.7
20260509182000 28 206 4.8 9.7 0.00 0.00 0.00 68 1008.8
20260509181514 29 190 3.2 9.7 0.00 0.00 0.00 66 1008.9
20260509181001 29 166 3.2 6.4 0.00 0.00 0.00 67 1009.1
20260509180500 28 342 4.8 12.9 0.00 0.00 0.00 69 1009.1
20260509180023 28 195 3.2 12.9 0.00 0.00 0.00 70 1009.1
20260509175459 28 159 3.2 12.9 0.00 0.00 0.00 71 1009.2
20260509175000 28 175 4.8 12.9 0.00 0.00 0.00 69 1009.3
20260509174001 28 164 6.4 12.9 0.00 0.00 0.00 70 1009.3
20260509173023 28 181 4.8 17.7 0.00 0.00 0.00 71 1009.4
20260509172459 28 150 6.4 12.9 0.00 0.00 0.00 72 1009.4
20260509171515 28 195 4.8 16.1 0.00 0.00 0.00 75 1009.4
20260509171002 27 100 4.8 12.9 0.00 0.00 0.00 76 1009.4
20260509170025 27 132 4.8 9.7 0.00 0.00 0.00 77 1009.4
20260509165501 27 91 3.2 8.0 0.00 0.00 0.00 78 1009.4
20260509165001 26 171 3.2 8.0 0.00 0.00 0.00 79 1009.3
20260509164515 26 184 1.6 4.8 0.00 0.00 0.00 81 1009.4
20260509164000 26 137 0.0 3.2 0.00 0.00 0.00 81 1009.6
20260509163500 26 246 0.0 1.6 0.00 0.00 0.00 81 1009.6
20260509163025 25 246 0.0 1.6 0.00 0.00 0.00 81 1009.6
20260509162500 25 246 0.0 1.6 0.00 0.00 0.00 82 1009.8
20260509162002 25 246 0.0 1.6 0.00 0.00 0.00 82 1009.9
20260509161516 25 246 0.0 3.2 0.00 0.00 0.00 82 1009.9
20260509161002 25 246 1.6 6.4 0.00 0.00 0.00 82 1009.9
20260509160501 26 312 1.6 6.4 0.00 0.00 0.00 82 1009.9
20260509160026 25 54 1.6 4.8 0.00 0.00 0.00 82 1009.8
20260509155500 25 8 1.6 4.8 0.00 0.00 0.00 82 1009.8
20260509155000 25 320 3.2 4.8 0.00 0.00 0.00 82 1009.8
20260509154514 25 3 3.2 4.8 0.00 0.00 0.00 82 1009.8
20260509153026 25 73 0.0 3.2 0.00 0.00 0.00 84 1009.8
20260509152459 25 73 1.6 3.2 0.00 0.00 0.00 84 1009.9
20260509152000 25 208 1.6 4.8 0.00 0.00 0.00 84 1009.9
20260509151514 25 82 0.0 4.8 0.00 0.00 0.00 84 1009.8
20260509151001 25 31 0.0 3.2 0.00 0.00 0.00 84 1009.9
20260509150022 25 31 0.0 3.2 0.00 0.00 0.00 85 1009.7
20260509145500 25 16 1.6 3.2 0.00 0.00 0.00 85 1009.5
20260509144514 25 137 0.0 4.8 0.00 0.00 0.00 87 1009.2
20260509142501 24 348 0.0 3.2 0.00 0.00 0.00 90 1009.4
20260509142000 24 148 0.0 3.2 0.00 0.00 0.00 90 1009.2
20260509141514 24 141 0.0 3.2 0.00 0.00 0.00 90 1009.0
20260509140956 24 139 0.0 3.2 0.00 0.00 0.00 90 1008.9
20260509140456 23 139 0.0 3.2 0.00 0.00 0.00 90 1008.8
20260509135456 23 139 0.0 3.2 0.00 0.00 0.00 90 1009.0
20260509134957 23 155 0.0 3.2 0.00 0.00 0.00 90 1009.2
20260509134510 23 216 0.0 3.2 0.00 0.00 0.00 90 1009.2
20260509133011 23 160 0.0 4.8 0.00 0.00 0.00 90 1009.3
20260509132455 23 154 0.0 1.6 0.00 0.00 0.00 91 1009.7
20260509131956 23 154 0.0 1.6 0.00 0.00 0.00 91 1010.0
20260509131510 23 154 0.0 1.6 0.00 0.00 0.00 91 1009.9
20260509130957 23 154 1.6 3.2 0.00 0.00 0.00 91 1009.8
20260509130456 23 154 1.6 4.8 0.00 0.00 0.00 91 1009.9
20260509130022 23 173 1.6 4.8 0.00 0.00 0.00 91 1009.8
20260509125456 23 193 0.0 1.6 0.00 0.00 0.00 91 1009.7
20260509124957 23 193 0.0 1.6 0.00 0.00 0.00 92 1009.6
20260509124511 23 193 0.0 3.2 0.00 0.00 0.00 91 1009.8
20260509123957 23 193 0.0 3.2 0.00 0.00 0.00 92 1009.8
20260509123456 22 171 1.6 3.2 0.00 0.00 0.00 92 1009.6
20260509123021 22 148 1.6 4.8 0.00 0.00 0.00 92 1009.5
20260509122457 22 191 1.6 4.8 0.00 0.00 0.00 92 1009.6
20260509121957 22 162 1.6 3.2 0.00 0.00 0.00 92 1009.5
20260509121511 22 178 0.0 3.2 0.00 0.00 0.00 91 1009.4
20260509120957 22 181 0.0 3.2 0.00 0.00 0.00 92 1009.5
20260509120456 22 2 0.0 1.6 0.00 0.00 0.00 91 1009.3
20260509120019 22 2 0.0 1.6 0.00 0.00 0.00 91 1009.3
20260509115456 22 2 0.0 0.0 0.00 0.00 0.00 91 1009.1
20260509114957 22 2 0.0 1.6 0.00 0.00 0.00 91 1009.1
20260509114513 22 2 0.0 1.6 0.00 0.00 0.00 91 1009.2
20260509113958 22 2 0.0 0.0 0.00 0.00 0.00 91 1009.2
20260509113457 22 2 0.0 1.6 0.00 0.00 0.00 91 1009.3
20260509112457 22 2 1.6 4.8 0.00 0.00 0.00 91 1009.7
20260509111957 22 21 0.0 4.8 0.00 0.00 0.00 91 1009.7
20260509111511 22 29 0.0 1.6 0.00 0.00 0.00 91 1009.5
20260509110957 22 29 1.6 3.2 0.00 0.00 0.00 91 1009.3
20260509110511 22 29 1.6 6.4 0.00 0.00 0.00 91 1009.4
20260509110021 22 353 1.6 4.8 0.00 0.00 0.00 91 1009.6
20260509105455 22 19 1.6 4.8 0.00 0.00 0.00 91 1009.5
20260509104956 22 19 1.6 6.4 0.00 0.00 0.00 91 1009.2
20260509104510 22 10 1.6 6.4 0.00 0.00 0.00 91 1009.0
20260509103956 22 17 0.0 1.6 0.00 0.00 0.00 91 1008.9
20260509103011 22 135 0.0 1.6 0.00 0.00 0.00 91 1008.9
20260509101956 22 135 0.0 1.6 0.00 0.00 0.00 91 1008.9
20260509101510 22 135 0.0 1.6 0.00 0.00 0.00 91 1008.8
20260509100956 22 135 0.0 1.6 0.00 0.00 0.00 91 1008.5
20260509100455 22 135 0.0 1.6 0.00 0.00 0.00 90 1008.3
20260509100024 22 135 0.0 1.6 0.00 0.00 0.00 90 1008.3
20260509095455 22 135 0.0 1.6 0.00 0.00 0.00 90 1008.4
20260509094957 22 135 0.0 0.0 0.00 0.00 0.00 90 1008.3
20260509094510 22 135 0.0 0.0 0.00 0.00 0.00 90 1008.4
20260509093956 22 135 0.0 1.6 0.00 0.00 0.00 90 1008.3
20260509093010 22 135 0.0 1.6 0.00 0.00 0.00 90 1008.7
20260509092456 22 135 0.0 1.6 0.00 0.00 0.00 90 1008.8
20260509091956 22 135 0.0 0.0 0.00 0.00 0.00 90 1008.9
20260509091510 22 135 0.0 0.0 0.00 0.00 0.00 90 1009.0
20260509090956 22 135 0.0 0.0 0.00 0.00 0.00 90 1009.0
20260509090455 22 135 0.0 0.0 0.00 0.00 0.00 90 1008.9
20260509090020 22 135 0.0 0.0 0.00 0.00 0.00 90 1008.9
20260509085456 22 135 0.0 1.6 0.00 0.00 0.00 90 1008.9
20260509084957 22 135 0.0 1.6 0.00 0.00 0.00 90 1009.0
20260509084510 22 135 0.0 1.6 0.00 0.00 0.00 90 1009.0
20260509083956 22 135 0.0 1.6 0.00 0.00 0.00 90 1009.1
20260509083012 22 135 0.0 3.2 0.00 0.00 0.00 90 1008.9
20260509082455 22 135 0.0 1.6 0.00 0.00 0.00 90 1008.9
20260509081956 22 135 0.0 1.6 0.00 0.00 0.00 90 1008.8
20260509081511 22 135 0.0 1.6 0.00 0.00 0.00 89 1008.8
20260509080956 23 135 0.0 1.6 0.00 0.00 0.00 90 1008.8
20260509080456 23 79 0.0 1.6 0.00 0.00 0.00 89 1008.6
20260509080011 23 79 0.0 1.6 0.00 0.00 0.00 89 1008.7
20260509075454 23 79 0.0 1.6 0.00 0.00 0.00 89 1008.9
20260509074955 23 79 0.0 3.2 0.00 0.00 0.00 89 1008.8
20260509074509 23 83 0.0 4.8 0.00 0.00 0.00 89 1008.9
20260509073955 23 112 1.6 3.2 0.00 0.00 0.00 89 1008.8
20260509073010 23 101 0.0 3.2 0.00 0.00 0.00 89 1008.9
20260509072454 23 69 0.0 3.2 0.00 0.00 0.00 89 1008.9
20260509071956 23 77 1.6 4.8 0.00 0.00 0.00 89 1008.9
20260509071509 23 82 1.6 4.8 0.00 0.00 0.00 89 1008.7
20260509070454 23 114 0.0 3.2 0.00 0.00 0.00 89 1008.9
20260509070011 23 88 0.0 3.2 0.00 0.00 0.00 89 1008.9
20260509065455 23 76 0.0 3.2 0.00 0.00 0.00 89 1009.0
20260509064955 23 89 0.0 3.2 0.00 0.00 0.00 89 1009.0
20260509064510 23 120 0.0 1.6 0.00 0.00 0.00 89 1009.0
20260509063957 23 120 0.0 1.6 0.00 0.00 0.00 89 1009.1
20260509063455 22 120 0.0 1.6 0.00 0.00 0.00 89 1009.1
20260509063011 23 120 0.0 1.6 0.00 0.00 0.00 89 1009.2
20260509062454 23 120 0.0 1.6 0.00 0.00 0.00 89 1009.2
20260509061955 23 120 0.0 1.6 0.00 0.00 0.00 89 1009.2
20260509061510 23 120 0.0 1.6 0.00 0.00 0.00 89 1009.3
20260509060956 23 120 0.0 1.6 0.00 0.00 0.00 89 1009.4
20260509060454 23 120 0.0 1.6 0.00 0.00 0.00 89 1009.5
20260509060022 23 120 0.0 3.2 0.00 0.00 0.00 89 1009.5
20260509055459 23 137 1.6 3.2 0.00 0.00 0.00 89 1009.4
20260509055000 23 113 1.6 4.8 0.00 0.00 0.00 89 1009.4
20260509054514 22 67 1.6 4.8 0.00 0.00 0.00 89 1009.3
20260509053500 22 110 1.6 4.8 0.00 0.00 0.00 89 1009.4
20260509053023 22 153 1.6 3.2 0.00 0.00 0.00 89 1009.5
20260509052500 22 121 1.6 3.2 0.00 0.00 0.00 89 1009.5
20260509052000 22 117 1.6 4.8 0.00 0.00 0.00 89 1009.5
20260509051514 22 83 1.6 4.8 0.00 0.00 0.00 89 1009.5
20260509051002 22 121 1.6 4.8 0.00 0.00 0.00 89 1009.5
20260509050459 22 98 1.6 4.8 0.00 0.00 0.00 89 1009.4
20260509045459 22 103 1.6 4.8 0.00 0.00 0.00 89 1009.6
20260509045000 22 110 1.6 3.2 0.00 0.00 0.00 89 1009.6
20260509044514 22 133 0.0 3.2 0.00 0.00 0.00 89 1009.6
20260509044000 22 152 1.6 4.8 0.00 0.00 0.00 89 1009.7
20260509043023 22 109 1.6 6.4 0.00 0.00 0.00 89 1009.5
20260509042459 22 78 1.6 8.0 0.00 0.00 0.00 89 1009.7
20260509042000 22 114 1.6 9.7 0.00 0.00 0.00 89 1009.7
20260509041000 22 140 1.6 4.8 0.00 0.00 0.00 89 1009.5
20260509040459 22 79 1.6 6.4 0.00 0.00 0.00 89 1009.4
20260509035458 22 174 3.2 9.7 0.00 0.00 0.00 89 1009.2
20260509034959 22 152 1.6 11.3 0.00 0.00 0.00 89 1009.1
20260509034513 22 67 1.6 11.3 0.00 0.00 0.00 89 1009.1
20260509033959 22 2 1.6 6.4 0.00 0.00 0.00 89 1009.2
20260509033458 22 101 1.6 8.0 0.00 0.00 0.00 89 1009.1
20260509033020 22 92 3.2 9.7 0.00 0.00 0.00 89 1009.1
20260509032459 22 60 3.2 9.7 0.00 0.00 0.00 88 1009.0
20260509031513 22 73 1.6 6.4 0.00 0.00 0.00 88 1009.1
20260509030959 22 98 3.2 11.3 0.00 0.00 0.00 88 1009.2
20260509030458 22 143 3.2 11.3 0.00 0.00 0.00 88 1009.1
20260509030023 22 100 3.2 11.3 0.00 0.00 0.00 88 1009.0
20260509025000 22 102 3.2 11.3 0.00 0.00 0.00 87 1009.0
20260509024515 22 140 1.6 11.3 0.00 0.00 0.00 87 1008.9
20260509024001 22 90 3.2 6.4 0.00 0.00 0.00 87 1008.9
20260509023459 22 89 3.2 6.4 0.00 0.00 0.00 87 1008.8
20260509023022 22 129 3.2 11.3 0.00 0.00 0.00 87 1008.8
20260509022500 22 64 6.4 11.3 0.00 0.00 0.00 87 1008.8
20260509021959 22 58 1.6 9.7 0.00 0.00 0.00 87 1008.7
20260509021514 22 120 3.2 12.9 0.00 0.00 0.00 87 1008.6